usa flag      new mexico flag

Language: 

Lomapinon History Data from Weather Underground


LomaPinon Weather Station Historical Data
 
Daily Summary for August 24, 2019 Units:  English    Metric   Both
Daily Weekly Monthly Yearly Custom
  Current: High: Low: Average:
Temperature: 96.4 °F 98.1 °F 58 °F 75.7 °F
Dew Point: 31 °F 54.2 °F 29.1 °F 44 °F
Humidity: 10% 69% 9% 39%
Wind Speed: 7mph 9mph 0mph 0.7mph
Wind Gust: 10mph 17mph - -
WindWest - - SW
Pressure: 29.61 in 29.74 in 29.61 in -
Precipitation: 0 in      
Historical Graphs
 
 
Tabular Data for August 24, 2019
Time Temperature Dew Point Pressure Wind Wind Speed Wind Gust Humidity Rainfall Rate (Hourly) solar
00:00 72.3 °F 46.6 °F 29.64 in Calm   1 mph 40% 0 in 0.00 W/m2
00:05 72.2 °F 46.5 °F 29.64 in Calm     40% 0 in 0.00 W/m2
00:10 72 °F 46.3 °F 29.64 in Calm     40% 0 in 0.00 W/m2
00:15 71.7 °F 46.7 °F 29.64 in Calm     41% 0 in 0.00 W/m2
00:20 71.4 °F 46.5 °F 29.64 in Calm     41% 0 in 0.00 W/m2
00:25 71 °F 46.7 °F 29.64 in Calm     42% 0 in 0.00 W/m2
00:30 70.7 °F 46.5 °F 29.64 in Calm     42% 0 in 0.00 W/m2
00:35 70.4 °F 46.2 °F 29.64 in Calm     42% 0 in 0.00 W/m2
00:40 70.2 °F 46.6 °F 29.64 in Calm     43% 0 in 0.00 W/m2
00:45 69.9 °F 46.4 °F 29.64 in Calm     43% 0 in 0.00 W/m2
00:50 69.7 °F 46.2 °F 29.64 in Calm     43% 0 in 0.00 W/m2
00:55 69.5 °F 46.6 °F 29.64 in Calm     44% 0 in 0.00 W/m2
01:00 69.2 °F 46.4 °F 29.64 in Calm     44% 0 in 0.00 W/m2
01:05 69 °F 46.2 °F 29.64 in Calm     44% 0 in 0.00 W/m2
01:10 68.8 °F 46.6 °F 29.64 in Calm     45% 0 in 0.00 W/m2
01:15 68.7 °F 46.5 °F 29.65 in Calm     45% 0 in 0.00 W/m2
01:20 68.6 °F 46.4 °F 29.64 in Calm     45% 0 in 0.00 W/m2
01:25 68.5 °F 46.9 °F 29.65 in Calm     46% 0 in 0.00 W/m2
01:30 68.2 °F 46 °F 29.65 in Calm     45% 0 in 0.00 W/m2
01:35 67.7 °F 45.6 °F 29.65 in Calm     45% 0 in 0.00 W/m2
01:40 67.3 °F 45.8 °F 29.65 in Calm     46% 0 in 0.00 W/m2
01:45 66.9 °F 45.4 °F 29.65 in Calm     46% 0 in 0.00 W/m2
01:50 66.6 °F 45.7 °F 29.65 in Calm     47% 0 in 0.00 W/m2
01:55 66.2 °F 45.4 °F 29.65 in Calm     47% 0 in 0.00 W/m2
02:00 65.9 °F 45.6 °F 29.65 in Calm     48% 0 in 0.00 W/m2
02:05 65.6 °F 45.9 °F 29.65 in Calm     49% 0 in 0.00 W/m2
02:10 65.3 °F 45.6 °F 29.65 in Calm     49% 0 in 0.00 W/m2
02:15 65 °F 45.9 °F 29.65 in Calm     50% 0 in 0.00 W/m2
02:20 64.9 °F 46.3 °F 29.65 in Calm     51% 0 in 0.00 W/m2
02:25 64.9 °F 46.3 °F 29.65 in Calm     51% 0 in 0.00 W/m2
02:30 65 °F 46.4 °F 29.65 in Calm     51% 0 in 0.00 W/m2
02:35 65.1 °F 46.5 °F 29.65 in Calm     51% 0 in 0.00 W/m2
02:40 65.2 °F 46.6 °F 29.65 in Calm     51% 0 in 0.00 W/m2
02:45 65.2 °F 46.6 °F 29.66 in Calm     51% 0 in 0.00 W/m2
02:50 65 °F 45.9 °F 29.66 in Calm     50% 0 in 0.00 W/m2
02:55 64.9 °F 45.8 °F 29.66 in Calm     50% 0 in 0.00 W/m2
03:00 64.7 °F 45.6 °F 29.66 in Calm     50% 0 in 0.00 W/m2
03:05 64.5 °F 46 °F 29.66 in Calm     51% 0 in 0.00 W/m2
03:10 64.3 °F 46.3 °F 29.66 in Calm     52% 0 in 0.00 W/m2
03:15 64 °F 46 °F 29.66 in Calm     52% 0 in 0.00 W/m2
03:20 63.9 °F 45.9 °F 29.66 in Calm     52% 0 in 0.00 W/m2
03:25 63.7 °F 46.2 °F 29.66 in Calm     53% 0 in 0.00 W/m2
03:30 63.6 °F 46.1 °F 29.66 in Calm     53% 0 in 0.00 W/m2
03:35 63.4 °F 46 °F 29.66 in Calm     53% 0 in 0.00 W/m2
03:40 63.2 °F 46.3 °F 29.67 in Calm     54% 0 in 0.00 W/m2
03:45 63 °F 45.6 °F 29.67 in Calm     53% 0 in 0.00 W/m2
03:50 62.7 °F 45.3 °F 29.67 in Calm     53% 0 in 0.00 W/m2
03:55 62.5 °F 45.6 °F 29.67 in Calm     54% 0 in 0.00 W/m2
04:00 62.1 °F 45.7 °F 29.67 in Calm     55% 0 in 0.00 W/m2
04:05 62 °F 45.6 °F 29.68 in Calm     55% 0 in 0.00 W/m2
04:10 61.7 °F 45.4 °F 29.68 in Calm     55% 0 in 0.00 W/m2
04:15 61.5 °F 45.7 °F 29.67 in Calm     56% 0 in 0.00 W/m2
04:20 61.4 °F 46 °F 29.67 in Calm     57% 0 in 0.00 W/m2
04:25 61.3 °F 45.9 °F 29.67 in Calm     57% 0 in 0.00 W/m2
04:30 61.2 °F 45.8 °F 29.67 in Calm     57% 0 in 0.00 W/m2
04:35 61.1 °F 45.7 °F 29.67 in Calm     57% 0 in 0.00 W/m2
04:40 61.1 °F 46.2 °F 29.67 in Calm     58% 0 in 0.00 W/m2
04:45 61.1 °F 45.7 °F 29.67 in Calm     57% 0 in 0.00 W/m2
04:50 61.1 °F 46.7 °F 29.67 in Calm     59% 0 in 0.00 W/m2
04:55 61.1 °F 46.7 °F 29.67 in Calm     59% 0 in 0.00 W/m2
05:00 61.1 °F 46.7 °F 29.67 in Calm     59% 0 in 0.00 W/m2
05:05 61.1 °F 46.7 °F 29.67 in Calm     59% 0 in 0.00 W/m2
05:10 61.1 °F 46.2 °F 29.68 in Calm     58% 0 in 0.00 W/m2
05:15 61 °F 46.6 °F 29.68 in Calm     59% 0 in 0.00 W/m2
05:20 60.9 °F 46.5 °F 29.68 in Calm     59% 0 in 0.00 W/m2
05:25 60.9 °F 46.5 °F 29.68 in Calm     59% 0 in 0.00 W/m2
05:30 60.7 °F 46.3 °F 29.68 in Calm   1 mph 59% 0 in 0.00 W/m2
05:35 60.7 °F 46.3 °F 29.68 in Calm   1 mph 59% 0 in 0.00 W/m2
05:40 60.6 °F 46.2 °F 29.68 in Calm     59% 0 in 0.00 W/m2
05:45 60.6 °F 46.6 °F 29.68 in Calm     60% 0 in 0.00 W/m2
05:50 60.5 °F 46.5 °F 29.68 in Calm     60% 0 in 0.00 W/m2
05:55 60.4 °F 46.4 °F 29.69 in Calm   2 mph 60% 0 in 0.00 W/m2
06:00 60.3 °F 46.4 °F 29.69 in Calm   2 mph 60% 0 in 0.00 W/m2
06:05 60.2 °F 46.7 °F 29.69 in Calm     61% 0 in 0.00 W/m2
06:10 60 °F 46.1 °F 29.69 in Calm     60% 0 in 0.00 W/m2
06:15 59.8 °F 45.9 °F 29.70 in Calm     60% 0 in 0.00 W/m2
06:20 59.6 °F 45.7 °F 29.70 in Calm     60% 0 in 0.00 W/m2
06:25 59.5 °F 45.6 °F 29.70 in Calm     60% 0 in 0.00 W/m2
06:30 59.3 °F 45.8 °F 29.71 in Calm     61% 0 in 0.00 W/m2
06:35 59.2 °F 45.8 °F 29.71 in Calm     61% 0 in 5.00 W/m2
06:40 59 °F 45.6 °F 29.71 in Calm     61% 0 in 9.00 W/m2
06:45 58.9 °F 45.9 °F 29.71 in Calm     62% 0 in 12.00 W/m2
06:50 58.7 °F 45.7 °F 29.72 in Calm     62% 0 in 16.00 W/m2
06:55 58.6 °F 46 °F 29.72 in Calm     63% 0 in 19.00 W/m2
07:00 58.4 °F 45.8 °F 29.72 in Calm     63% 0 in 21.00 W/m2
07:05 58.2 °F 46.1 °F 29.72 in Calm     64% 0 in 25.00 W/m2
07:10 58.2 °F 46.5 °F 29.73 in Calm     65% 0 in 28.00 W/m2
07:15 58.1 °F 46.8 °F 29.73 in Calm     66% 0 in 30.00 W/m2
07:20 58 °F 47.1 °F 29.73 in Calm     67% 0 in 33.00 W/m2
07:25 58 °F 47.1 °F 29.73 in Calm     67% 0 in 35.00 W/m2
07:30 58.2 °F 47.7 °F 29.73 in Calm     68% 0 in 148.00 W/m2
07:35 58.4 °F 47.9 °F 29.73 in Calm     68% 0 in 169.00 W/m2
07:40 58.6 °F 48.5 °F 29.73 in Calm     69% 0 in 179.00 W/m2
07:45 59 °F 48.4 °F 29.73 in Calm     68% 0 in 211.00 W/m2
07:50 59.4 °F 48.8 °F 29.73 in Calm     68% 0 in 232.00 W/m2
07:55 59.8 °F 48.8 °F 29.73 in Calm     67% 0 in 250.00 W/m2
08:00 60.2 °F 49.2 °F 29.73 in Calm     67% 0 in 269.00 W/m2
08:05 60.8 °F 49 °F 29.73 in Calm     65% 0 in 237.00 W/m2
08:10 61.3 °F 49.4 °F 29.73 in Calm     65% 0 in 301.00 W/m2
08:15 61.9 °F 50 °F 29.73 in Calm     65% 0 in 323.00 W/m2
08:20 62.8 °F 50 °F 29.73 in Calm     63% 0 in 341.00 W/m2
08:25 63.5 °F 50.2 °F 29.73 in Calm     62% 0 in 359.00 W/m2
08:30 64.2 °F 50.9 °F 29.73 in Calm     62% 0 in 378.00 W/m2
08:35 65 °F 50.8 °F 29.73 in Calm     60% 0 in 396.00 W/m2
08:40 65.9 °F 52.1 °F 29.73 in Calm     61% 0 in 411.00 W/m2
08:45 66.6 °F 51.8 °F 29.73 in Calm     59% 0 in 431.00 W/m2
08:50 67.4 °F 52.1 °F 29.73 in Calm     58% 0 in 450.00 W/m2
08:55 68.4 °F 52.1 °F 29.73 in Calm     56% 0 in 468.00 W/m2
09:00 69.3 °F 52.4 °F 29.73 in Calm     55% 0 in 480.00 W/m2
09:05 70.3 °F 51.3 °F 29.73 in Calm     51% 0 in 494.00 W/m2
09:10 71.3 °F 51.1 °F 29.73 in Calm     49% 0 in 513.00 W/m2
09:15 72.3 °F 54.2 °F 29.73 in Calm     53% 0 in 527.00 W/m2
09:20 73.1 °F 52.2 °F 29.73 in Calm     48% 0 in 543.00 W/m2
09:25 74 °F 50.7 °F 29.74 in Calm     44% 0 in 559.00 W/m2
09:30 74.7 °F 49.4 °F 29.73 in Calm     41% 0 in 575.00 W/m2
09:35 75.5 °F 48.8 °F 29.73 in Calm     39% 0 in 591.00 W/m2
09:40 76.4 °F 48.9 °F 29.73 in Calm   1 mph 38% 0 in 606.00 W/m2
09:45 77 °F 48 °F 29.73 in Calm   1 mph 36% 0 in 619.00 W/m2
09:50 77.5 °F 47.7 °F 29.74 in Calm   6 mph 35% 0 in 635.00 W/m2
09:55 77.9 °F 47.3 °F 29.73 in Calm   6 mph 34% 0 in 647.00 W/m2
10:00 78.4 °F 46.9 °F 29.74 in SSE 2 mph 6 mph 33% 0 in 659.00 W/m2
10:05 78.8 °F 47.3 °F 29.74 in Calm   7 mph 33% 0 in 673.00 W/m2
10:10 79.1 °F 46.7 °F 29.74 in South 1 mph 7 mph 32% 0 in 686.00 W/m2
10:15 79.5 °F 47.1 °F 29.74 in Calm   6 mph 32% 0 in 700.00 W/m2
10:20 80 °F 46.6 °F 29.74 in SE 2 mph 7 mph 31% 0 in 707.00 W/m2
10:25 80.3 °F 47.7 °F 29.74 in Calm   7 mph 32% 0 in 721.00 W/m2
10:30 80.6 °F 47.2 °F 29.74 in ESE 2 mph 5 mph 31% 0 in 731.00 W/m2
10:35 80.8 °F 47.3 °F 29.74 in Calm   3 mph 31% 0 in 744.00 W/m2
10:40 81.2 °F 46.8 °F 29.74 in SSE 5 mph 5 mph 30% 0 in 754.00 W/m2
10:45 81.5 °F 46.2 °F 29.74 in Calm   6 mph 29% 0 in 766.00 W/m2
10:50 81.9 °F 45.6 °F 29.74 in Calm   6 mph 28% 0 in 777.00 W/m2
10:55 82.4 °F 46 °F 29.74 in Calm   5 mph 28% 0 in 786.00 W/m2
11:00 82.5 °F 46.1 °F 29.74 in Calm   5 mph 28% 0 in 795.00 W/m2
11:05 82.8 °F 47.3 °F 29.74 in Calm   5 mph 29% 0 in 807.00 W/m2
11:10 83.2 °F 46.7 °F 29.73 in South 6 mph 6 mph 28% 0 in 814.00 W/m2
11:15 83.4 °F 46.9 °F 29.74 in SE 1 mph 6 mph 28% 0 in 821.00 W/m2
11:20 83.5 °F 46 °F 29.73 in SSE 1 mph 6 mph 27% 0 in 830.00 W/m2
11:25 84.1 °F 46.5 °F 29.73 in Calm   5 mph 27% 0 in 837.00 W/m2
11:30 84.6 °F 46.9 °F 29.73 in NE 4 mph 5 mph 27% 0 in 846.00 W/m2
11:35 84.8 °F 46.1 °F 29.73 in Calm   5 mph 26% 0 in 851.00 W/m2
11:40 85.1 °F 46.4 °F 29.72 in ESE 2 mph 5 mph 26% 0 in 858.00 W/m2
11:45 85.6 °F 46.8 °F 29.72 in ESE 4 mph 5 mph 26% 0 in 865.00 W/m2
11:50 86 °F 50 °F 29.72 in Calm   6 mph 29% 0 in 872.00 W/m2
11:55 86.6 °F 46.6 °F 29.71 in Calm   6 mph 25% 0 in 874.00 W/m2
12:00 87.2 °F 48.1 °F 29.71 in Calm   5 mph 26% 0 in 882.00 W/m2
12:05 87.9 °F 48.7 °F 29.71 in Calm   4 mph 26% 0 in 891.00 W/m2
12:10 88.6 °F 46.1 °F 29.71 in Calm   3 mph 23% 0 in 895.00 W/m2
12:15 89.2 °F 42.9 °F 29.70 in South 1 mph 8 mph 20% 0 in 900.00 W/m2
12:20 89.9 °F 42.1 °F 29.70 in South 5 mph 8 mph 19% 0 in 902.00 W/m2
12:25 90.5 °F 41.2 °F 29.70 in SSW 2 mph 7 mph 18% 0 in 902.00 W/m2
12:30 91.2 °F 44.5 °F 29.70 in NNW 5 mph 11 mph 20% 0 in 912.00 W/m2
12:35 91.6 °F 43.5 °F 29.70 in Calm   11 mph 19% 0 in 911.00 W/m2
12:40 92.1 °F 39.5 °F 29.70 in Calm   6 mph 16% 0 in 912.00 W/m2
12:45 92.7 °F 41.5 °F 29.69 in Calm   6 mph 17% 0 in 912.00 W/m2
12:50 93.1 °F 41.8 °F 29.69 in Calm   7 mph 17% 0 in 916.00 W/m2
12:55 93.5 °F 40.6 °F 29.69 in Calm   7 mph 16% 0 in 912.00 W/m2
13:00 93.6 °F 39 °F 29.69 in SSW 3 mph 3 mph 15% 0 in 918.00 W/m2
13:05 94 °F 35.7 °F 29.69 in NW 6 mph 8 mph 13% 0 in 914.00 W/m2
13:10 94 °F 39.3 °F 29.68 in Calm   9 mph 15% 0 in 918.00 W/m2
13:15 94.3 °F 33.9 °F 29.68 in WSW 6 mph 9 mph 12% 0 in 914.00 W/m2
13:20 94.5 °F 37.9 °F 29.68 in NW 5 mph 9 mph 14% 0 in 911.00 W/m2
13:25 94.8 °F 41.6 °F 29.68 in Calm   11 mph 16% 0 in 909.00 W/m2
13:30 95 °F 36.4 °F 29.68 in SSW 6 mph 11 mph 13% 0 in 905.00 W/m2
13:35 95.3 °F 36.7 °F 29.68 in Calm   8 mph 13% 0 in 904.00 W/m2
13:40 95.6 °F 34.9 °F 29.68 in Calm   14 mph 12% 0 in 896.00 W/m2
13:45 95.4 °F 36.8 °F 29.68 in NNW 7 mph 14 mph 13% 0 in 889.00 W/m2
13:50 94.9 °F 36.4 °F 29.67 in NW 5 mph 15 mph 13% 0 in 888.00 W/m2
13:55 94.8 °F 38.2 °F 29.68 in Calm   17 mph 14% 0 in 884.00 W/m2
14:00 95 °F 34.4 °F 29.67 in Calm   17 mph 12% 0 in 879.00 W/m2
14:05 95.3 °F 34.7 °F 29.67 in Calm   8 mph 12% 0 in 872.00 W/m2
14:10 95.9 °F 39 °F 29.66 in Calm   7 mph 14% 0 in 865.00 W/m2
14:15 96.1 °F 37.3 °F 29.66 in Calm   7 mph 13% 0 in 860.00 W/m2
14:20 96.4 °F 39.4 °F 29.66 in Calm   10 mph 14% 0 in 853.00 W/m2
14:25 96.7 °F 35.7 °F 29.66 in Calm   10 mph 12% 0 in 844.00 W/m2
14:30 96.8 °F 35.8 °F 29.66 in Calm   12 mph 12% 0 in 838.00 W/m2
14:35 97 °F 39.9 °F 29.66 in Calm   12 mph 14% 0 in 828.00 W/m2
14:40 97.3 °F 34 °F 29.65 in Calm   5 mph 11% 0 in 821.00 W/m2
14:45 97.6 °F 36.4 °F 29.65 in NNW 1 mph 4 mph 12% 0 in 814.00 W/m2
14:50 97.7 °F 36.5 °F 29.65 in NW 8 mph 13 mph 12% 0 in 807.00 W/m2
14:55 97.5 °F 36.4 °F 29.65 in Calm   13 mph 12% 0 in 795.00 W/m2
15:00 97.7 °F 31.9 °F 29.65 in Calm   9 mph 10% 0 in 784.00 W/m2
15:05 97.7 °F 34.3 °F 29.65 in WNW 5 mph 11 mph 11% 0 in 779.00 W/m2
15:10 97.7 °F 34.3 °F 29.64 in WNW 4 mph 11 mph 11% 0 in 768.00 W/m2
15:15 97.9 °F 34.5 °F 29.64 in NW 5 mph 12 mph 11% 0 in 758.00 W/m2
15:20 97.7 °F 34.3 °F 29.64 in NNE 8 mph 12 mph 11% 0 in 742.00 W/m2
15:25 97 °F 36 °F 29.64 in Calm   13 mph 12% 0 in 731.00 W/m2
15:30 97.2 °F 33.9 °F 29.64 in Calm   14 mph 11% 0 in 735.00 W/m2
15:35 97.4 °F 29.1 °F 29.64 in Calm   14 mph 9% 0 in 714.00 W/m2
15:40 97.7 °F 31.9 °F 29.64 in NNW 1 mph 15 mph 10% 0 in 700.00 W/m2
15:45 97.9 °F 32.1 °F 29.64 in WSW 6 mph 15 mph 10% 0 in 684.00 W/m2
15:50 97.9 °F 32.1 °F 29.64 in Calm   15 mph 10% 0 in 670.00 W/m2
15:55 98.1 °F 34.6 °F 29.63 in Calm   13 mph 11% 0 in 657.00 W/m2
16:00 98 °F 32.2 °F 29.63 in Calm   13 mph 10% 0 in 645.00 W/m2
16:05 98.1 °F 32.2 °F 29.63 in West 3 mph 8 mph 10% 0 in 631.00 W/m2
16:10 98 °F 34.5 °F 29.63 in Calm   13 mph 11% 0 in 615.00 W/m2
16:15 97.8 °F 32 °F 29.62 in Calm   13 mph 10% 0 in 599.00 W/m2
16:20 97.7 °F 34.3 °F 29.62 in Calm   10 mph 11% 0 in 587.00 W/m2
16:25 97.5 °F 34.2 °F 29.62 in WNW 9 mph 11 mph 11% 0 in 563.00 W/m2
16:30 97.6 °F 34.2 °F 29.62 in WNW 3 mph 12 mph 11% 0 in 552.00 W/m2
16:35 97.4 °F 31.7 °F 29.61 in Calm   12 mph 10% 0 in 541.00 W/m2
16:40 97.3 °F 34 °F 29.61 in WNW 4 mph 7 mph 11% 0 in 526.00 W/m2
16:45 97.1 °F 31.5 °F 29.61 in North 4 mph 6 mph 10% 0 in 506.00 W/m2
16:50 96.5 °F 33.4 °F 29.61 in NW 1 mph 10 mph 11% 0 in 492.00 W/m2
16:55 96.4 °F 31 °F 29.61 in West 7 mph 10 mph 10% 0 in 476.00 W/m2
Rio Rancho, New Mexico Weather
Compliments of Weather Underground - 2 mb
top